When you browse on this site, cookies collect data to enhance your experience and personalize the content and advertising you see.
Visit our Privacy Policy to learn more. By continuing to use the site, you agree to this use of cookies and data.
  • In Lithuania
  • List of Countries
  • For 7 days
  • Water Temperature
  • Weather Map
  • Weather Widgets
  • user-avatar
    Login

    Hourly Weather Koprivnice

    Today, 7 December, Saturday

    Time Temperature Precipitation Wind Pressure Humidity
    00:00 -5°C° 0 mm 4 mps 729 mmHg 74%
    01:00 -4°C° 0 mm 4 mps 729 mmHg 74%
    02:00 -4°C° 0 mm 4 mps 728 mmHg 74%
    03:00 -4°C° 0 mm 4 mps 728 mmHg 75%
    04:00 -4°C° 0 mm 4 mps 727 mmHg 76%
    05:00 -4°C° 0 mm 4 mps 728 mmHg 75%
    06:00 -4°C° 0 mm 5 mps 728 mmHg 74%
    07:00 -4°C° 0 mm 5 mps 728 mmHg 74%
    08:00 -2°C° 0.2 mm 5 mps 728 mmHg 77%
    09:00 -2°C° 0.2 mm 5 mps 728 mmHg 81%
    10:00 -1°C° 0.2 mm 5 mps 728 mmHg 84%
    11:00 -1°C° 0 mm 5 mps 728 mmHg 85%
    12:00 0°C° 0 mm 4 mps 728 mmHg 86%
    13:00 +1°C° 0 mm 4 mps 727 mmHg 88%
    14:00 +1°C° 0.1 mm 4 mps 727 mmHg 89%
    15:00 +1°C° 0.1 mm 4 mps 728 mmHg 91%
    16:00 +2°C° 0.1 mm 3 mps 728 mmHg 93%
    17:00 +2°C° 0 mm 3 mps 728 mmHg 93%
    18:00 +2°C° 0 mm 3 mps 728 mmHg 93%
    19:00 +2°C° 0 mm 3 mps 729 mmHg 92%
    20:00 +2°C° 0 mm 3 mps 729 mmHg 93%
    21:00 +2°C° 0 mm 3 mps 729 mmHg 93%
    22:00 +2°C° 0 mm 3 mps 729 mmHg 93%
    23:00 +1°C° 0 mm 3 mps 729 mmHg 93%

    Tomorrow, 8 December, Sunday

    Time Temperature Precipitation Wind Pressure Humidity
    00:00 +1°C° 0 mm 3 mps 729 mmHg 93%
    01:00 +1°C° 0 mm 3 mps 729 mmHg 93%
    02:00 +1°C° 0 mm 3 mps 729 mmHg 93%
    03:00 +1°C° 0 mm 3 mps 729 mmHg 93%
    04:00 +1°C° 0 mm 3 mps 729 mmHg 92%
    05:00 +1°C° 0 mm 3 mps 729 mmHg 93%
    06:00 +1°C° 0 mm 3 mps 729 mmHg 93%
    07:00 +1°C° 0 mm 3 mps 729 mmHg 93%
    08:00 +2°C° 0 mm 3 mps 729 mmHg 91%
    09:00 +2°C° 0 mm 3 mps 729 mmHg 89%
    10:00 +3°C° 0 mm 4 mps 729 mmHg 87%
    11:00 +4°C° 0 mm 4 mps 728 mmHg 85%
    12:00 +3°C° 0 mm 5 mps 728 mmHg 83%
    13:00 +4°C° 0 mm 6 mps 727 mmHg 80%
    14:00 +3°C° 0 mm 5 mps 727 mmHg 82%
    15:00 +2°C° 0 mm 5 mps 726 mmHg 83%
    16:00 +3°C° 0 mm 4 mps 725 mmHg 85%
    17:00 +3°C° 0 mm 4 mps 725 mmHg 84%
    18:00 +2°C° 0 mm 5 mps 725 mmHg 83%
    19:00 +1°C° 0 mm 5 mps 725 mmHg 83%
    20:00 +2°C° 0.2 mm 5 mps 725 mmHg 84%
    21:00 +2°C° 0.2 mm 5 mps 724 mmHg 86%
    22:00 +2°C° 0.2 mm 5 mps 724 mmHg 88%
    23:00 +3°C° 0.4 mm 4 mps 723 mmHg 88%

    Day after tomorrow, 9 December, Monday

    Time Temperature Precipitation Wind Pressure Humidity
    00:00 +3°C° 0.4 mm 4 mps 723 mmHg 89%
    01:00 +3°C° 0.4 mm 4 mps 723 mmHg 89%
    02:00 +3°C° 0.8 mm 4 mps 722 mmHg 90%
    03:00 +3°C° 0.8 mm 4 mps 722 mmHg 91%
    04:00 +3°C° 0.8 mm 4 mps 721 mmHg 92%
    05:00 +3°C° 0.2 mm 3 mps 721 mmHg 92%
    06:00 +3°C° 0.2 mm 3 mps 722 mmHg 92%
    07:00 +3°C° 0.2 mm 3 mps 722 mmHg 92%
    08:00 +3°C° 0.5 mm 3 mps 722 mmHg 91%
    09:00 +3°C° 0.5 mm 4 mps 722 mmHg 91%
    10:00 +4°C° 0.5 mm 4 mps 722 mmHg 90%
    11:00 +4°C° 0 mm 4 mps 722 mmHg 88%
    12:00 +4°C° 0 mm 4 mps 721 mmHg 86%
    13:00 +4°C° 0 mm 4 mps 721 mmHg 84%
    14:00 +4°C° 0 mm 3 mps 721 mmHg 86%
    15:00 +3°C° 0 mm 3 mps 720 mmHg 88%
    16:00 +4°C° 0 mm 2 mps 720 mmHg 91%
    17:00 +2°C° 0 mm 3 mps 720 mmHg 91%
    18:00 +2°C° 0 mm 3 mps 720 mmHg 91%
    19:00 +2°C° 0 mm 3 mps 720 mmHg 91%
    20:00 +2°C° 0 mm 3 mps 720 mmHg 90%
    21:00 +2°C° 0 mm 3 mps 720 mmHg 90%
    22:00 +1°C° 0 mm 4 mps 720 mmHg 89%
    23:00 +1°C° 0 mm 4 mps 720 mmHg 90%

    10 December, Tuesday

    Time Temperature Precipitation Wind Pressure Humidity
    00:00 +1°C° 0 mm 4 mps 720 mmHg 90%
    01:00 +1°C° 0 mm 4 mps 721 mmHg 90%
    02:00 +1°C° 0 mm 4 mps 721 mmHg 90%
    03:00 +2°C° 0 mm 3 mps 721 mmHg 91%
    04:00 +3°C° 0 mm 2 mps 722 mmHg 91%
    05:00 +3°C° 0.1 mm 2 mps 722 mmHg 92%
    06:00 +2°C° 0.1 mm 3 mps 723 mmHg 93%
    07:00 +2°C° 0.1 mm 3 mps 723 mmHg 94%
    08:00 +2°C° 0 mm 3 mps 724 mmHg 91%
    09:00 +2°C° 0 mm 3 mps 725 mmHg 88%
    10:00 +1°C° 0 mm 4 mps 726 mmHg 84%
    11:00 +3°C° 0 mm 4 mps 726 mmHg 84%
    12:00 +3°C° 0 mm 4 mps 727 mmHg 83%
    13:00 +3°C° 0 mm 4 mps 727 mmHg 82%
    14:00 +2°C° 0.1 mm 3 mps 728 mmHg 85%
    15:00 +2°C° 0.1 mm 3 mps 728 mmHg 87%
    16:00 +2°C° 0.1 mm 3 mps 729 mmHg 90%
    17:00 +1°C° 0.3 mm 3 mps 730 mmHg 92%
    18:00 +1°C° 0.3 mm 3 mps 731 mmHg 94%
    19:00 0°C° 0.3 mm 4 mps 732 mmHg 96%
    20:00 0°C° 0.3 mm 4 mps 732 mmHg 95%
    21:00 -1°C° 0.3 mm 4 mps 733 mmHg 94%
    22:00 -2°C° 0.3 mm 4 mps 733 mmHg 93%
    23:00 -2°C° 0.2 mm 4 mps 734 mmHg 92%

    11 December, Wednesday

    Time Temperature Precipitation Wind Pressure Humidity
    00:00 -1°C° 0.2 mm 3 mps 734 mmHg 91%
    01:00 -2°C° 0.2 mm 2 mps 734 mmHg 90%
    02:00 -2°C° 0 mm 2 mps 734 mmHg 90%
    03:00 -3°C° 0 mm 2 mps 734 mmHg 90%
    04:00 -1°C° 0 mm 1 mps 734 mmHg 90%
    05:00 -2°C° 0 mm 1 mps 734 mmHg 90%
    06:00 -2°C° 0 mm 1 mps 734 mmHg 90%
    07:00 -2°C° 0 mm 1 mps 734 mmHg 90%
    08:00 -1°C° 0 mm 1 mps 734 mmHg 86%
    09:00 -1°C° 0 mm 1 mps 734 mmHg 81%
    10:00 0°C° 0 mm 1 mps 734 mmHg 77%
    11:00 +1°C° 0 mm 1 mps 734 mmHg 73%
    12:00 +2°C° 0 mm 1 mps 733 mmHg 70%
    13:00 +3°C° 0 mm 1 mps 733 mmHg 66%
    14:00 +2°C° 0 mm 1 mps 732 mmHg 71%
    15:00 +1°C° 0 mm 1 mps 732 mmHg 76%
    16:00 0°C° 0 mm 1 mps 732 mmHg 80%
    17:00 0°C° 0 mm 1 mps 731 mmHg 81%
    18:00 0°C° 0 mm 1 mps 731 mmHg 82%
    19:00 0°C° 0 mm 1 mps 731 mmHg 83%
    20:00 -2°C° 0 mm 2 mps 731 mmHg 84%
    21:00 -2°C° 0 mm 2 mps 731 mmHg 85%
    22:00 -2°C° 0 mm 2 mps 730 mmHg 86%
    23:00 -3°C° 0 mm 2 mps 730 mmHg 87%

    12 December, Thursday

    Time Temperature Precipitation Wind Pressure Humidity
    00:00 -3°C° 0 mm 2 mps 730 mmHg 87%
    01:00 -3°C° 0 mm 2 mps 730 mmHg 88%
    02:00 -3°C° 0 mm 2 mps 729 mmHg 88%
    03:00 -3°C° 0 mm 2 mps 729 mmHg 89%
    04:00 -3°C° 0 mm 2 mps 729 mmHg 89%
    05:00 -3°C° 0 mm 2 mps 729 mmHg 87%
    06:00 -3°C° 0 mm 2 mps 729 mmHg 86%
    07:00 -3°C° 0 mm 2 mps 729 mmHg 84%
    08:00 -2°C° 0 mm 2 mps 729 mmHg 82%
    09:00 -1°C° 0 mm 2 mps 729 mmHg 79%
    10:00 +1°C° 0 mm 2 mps 729 mmHg 76%
    11:00 +1°C° 0 mm 2 mps 729 mmHg 79%
    12:00 0°C° 0 mm 3 mps 728 mmHg 83%
    13:00 0°C° 0 mm 3 mps 728 mmHg 86%
    14:00 0°C° 0 mm 3 mps 728 mmHg 88%
    15:00 +1°C° 0 mm 2 mps 727 mmHg 91%
    16:00 -1°C° 0 mm 2 mps 727 mmHg 93%
    17:00 -1°C° 0 mm 2 mps 727 mmHg 93%
    18:00 -1°C° 0 mm 2 mps 727 mmHg 94%
    19:00 +1°C° 0 mm 1 mps 727 mmHg 95%
    20:00 +1°C° 0 mm 1 mps 726 mmHg 95%
    21:00 +1°C° 0 mm 1 mps 726 mmHg 95%
    22:00 +1°C° 0 mm 1 mps 725 mmHg 95%
    23:00 +2°C° 0.1 mm 1 mps 724 mmHg 96%
    Show more